Flag for Canada Weather past 2 weeks in Regina, Saskatchewan, Canada

34 °F

Scattered clouds.

Feels Like: 22 °F
Forecast: N/A
Wind: 21 mph from West

Location: Regina Weather Station

Current Time: Nov 27, 2015 at 3:49:43 PM

Latest Report: Nov 27, 2015 at 3:00 PM

Visibility: 15 mi

Pressure: 30.31 "Hg (28.20 "Hg at 577m altitude)

Humidity: 41%

Dew point: 12 °F

Location of ReginaLocation

Historic Weather in Regina — Graph


Regina temperature yesterday

Maximum temperature yesterday: 12 °F (at 2:00 PM)
Minimum temperature yesterday: 0 °F (at 4:00 AM)
Average temperature yesterday: 5 °F

Past Weeks' High & Low Weather Summary

High55 °F (Nov 15, 3:00 PM)100% (Nov 16, 5:00 AM)30.69 "Hg (Nov 16, 5:00 AM)
Low0 °F (Nov 26, 4:00 AM)37% (Nov 17, 2:00 PM)28.96 "Hg (Nov 18, 5:00 AM)
Average26 °F78%29.96 "Hg
* Reported Nov 12 2:00 PM — Nov 27 2:00 PM, Regina, Weather by CustomWeather, © 2015

Note: Actual official high and low records may vary slightly from our data, if they occured in-between our weather recording intervals... More about our weather records


Regina weather history for previous 24 hours

Time TempWeatherWind HumidityBarometerVisibility
2:00 PM
Fri, Nov 27
34 °FPartly sunny.17 mph41%30.34 "Hg15 mi
1:00 PM32 °FScattered clouds.21 mph47%30.35 "Hg15 mi
12:00 PM28 °FPassing clouds.20 mph51%30.38 "Hg15 mi
11:00 AM25 °FPassing clouds.17 mph59%30.41 "Hg15 mi
10:00 AM18 °FPassing clouds.10 mph79%30.43 "Hg15 mi
9:00 AM10 °FSunny.14 mph79%30.46 "Hg15 mi
8:00 AM9 °FClear.9 mph78%30.48 "Hg15 mi
7:00 AM9 °FClear.12 mph78%30.50 "Hg15 mi
6:00 AM5 °FClear.12 mph85%30.52 "Hg15 mi
5:00 AM7 °FClear.10 mph78%30.54 "Hg15 mi
4:00 AM3 °FClear.9 mph85%30.56 "Hg15 mi
3:00 AM5 °FClear.9 mph78%30.58 "Hg15 mi
2:00 AM3 °FClear.9 mph85%30.60 "Hg15 mi
1:00 AM3 °FClear.8 mph85%30.60 "Hg12 mi
12:00 AM1 °FClear.9 mph85%30.62 "Hg12 mi
11:00 PM
Thu, Nov 26
1 °FClear.10 mph85%30.63 "Hg12 mi
10:00 PM1 °FClear.9 mph85%30.65 "Hg12 mi
9:00 PM1 °FClear.9 mph85%30.65 "Hg10 mi
8:00 PM1 °FClear.8 mph92%30.67 "Hg15 mi
7:00 PM1 °FPassing clouds.8 mph85%30.69 "Hg15 mi
6:00 PM5 °FPassing clouds.6 mph85%30.68 "Hg10 mi
5:00 PM9 °FPassing clouds.5 mph78%30.68 "Hg12 mi
4:00 PM12 °FPassing clouds.5 mph79%30.66 "Hg12 mi
3:00 PM12 °FLight snow. Ice fog.6 mph79%30.65 "Hg6 mi
Weather by CustomWeather, © 2015

See weather overviewHow to use our weather pages